Location: Bethel Cemetery
(33.4585°N, 96.4003°W)
Time: 23:26:44
(UTC+00:00)

BlueWalker 3 - Visible Passes

Search period start: 14 December 2025 00:00
Search period end: 24 December 2025 00:00
Orbit: 454 x 462 km, 53.2° (Epoch: 14 December)

Date Brightness Start Highest point End Pass type
(mag) Time Alt. Az. Time Alt. Az. Time Alt. Az.
17 Dec 5.0 12:31:53 10° SSE 12:34:10 16° SE 12:36:27 10° E visible
18 Dec 5.2 11:58:00 10° SE 11:59:18 12° ESE 12:00:37 10° ESE visible
20 Dec 1.8 12:22:54 10° SW 12:26:28 80° SE 12:30:04 10° NE visible
21 Dec 2.4 11:48:53 16° SSW 11:51:31 55° SE 11:55:01 10° NE visible
22 Dec 3.3 11:17:10 35° ESE 11:17:10 35° ESE 11:19:54 10° ENE visible
22 Dec 3.2 12:51:31 10° W 12:54:10 19° NW 12:56:50 10° NNE visible
23 Dec 2.9 12:18:39 24° NW 12:19:04 24° NW 12:22:04 10° NNE visible
